Dewpoint
55 56 58 58 56 56 56 57 59 58 60 61 62 62 63 63 66 67 68 70 72 72 73 74 73 72 73 73 73 74 74 74 73 74 73 72 72 72 73 72 73 72 71 72 72 73 74 74 74 74 75 74 75 75 75 76 76 73 75 76 75 75 73
54 54 55 56 57 57 57 58 59 60 61 62 62 63 63 63 66 65 68 70 71 72 72 73 73 72 72 73 73 74 74 74 74 74 72 74 74 75 73 73 72 74 74 72 72 74 74 75 75 75 75 75 75 76 74 75 75 75 75 76 75 76 76
55 54 55 56 56 56 57 57 59 61 62 61 62 61 62 65 65 67 67 67 70 71 71 71 73 72 71 72 72 73 73 73 74 73 72 70 72 71 73 74 73 71 72 72 73 72 73 74 76 76 75 74 73 75 75 75 75 74 77 79 75 74 76
55 54 56 57 58 58 58 60 61 62 61 61 61 60 62 64 64 66 67 67 67 69 70 70 70 70 71 72 71 72 72 73 73 71 71 71 70 71 72 75 73 73 71 72 71 71 69 74 73 76 76 75 75 73 74 75 73 74 76 77 74 76 77
55 55 56 57 56 56 57 58 59 61 62 63 62 64 63 62 63 64 65 64 63 65 66 67 66 68 69 70 69 69 70 70 71 71 71 70 72 71 71 71 71 71 72 71 72 73 74 73 72 76 73 75 75 75 74 75 75 75 77 76 75 75 74
55 55 56 56 57 56 57 57 58 60 60 62 63 61 61 62 64 64 64 64 64 64 65 67 66 67 68 68 68 67 70 71 72 73 71 71 72 70 70 70 69 70 72 71 71 70 73 72 72 73 71 71 72 72 72 73 73 73 76 75 74 74 71
57 57 57 57 56 56 57 57 56 58 62 61 62 62 60 62 65 64 63 63 63 63 62 64 64 66 68 67 68 68 69 68 69 69 70 70 71 71 70 70 70 68 70 71 71 71 70 71 73 73 72 70 72 71 72 74 74 74 76 75 76 76 75
62 60 58 57 56 55 55 58 57 59 61 62 61 62 60 62 62 64 67 67 66 66 66 66 63 66 69 69 67 66 67 67 67 68 68 69 70 70 70 70 70 70 71 69 71 72 70 71 71 72 71 71 71 72 73 75 76 73 74 75 76 74 71
65 66 66 63 57 55 56 57 58 59 62 64 65 65 64 64 66 67 68 68 67 65 66 67 66 64 69 67 68 67 66 66 67 67 67 66 68 67 67 69 70 71 71 69 69 71 71 70 69 71 73 72 72 74 74 76 73 73 73 74 75 75 73
67 68 66 67 61 57 58 57 59 59 62 64 66 66 64 65 69 70 69 70 69 67 67 67 66 66 69 68 68 67 66 66 65 64 64 63 64 66 66 66 69 70 70 69 68 69 71 71 70 72 74 72 74 74 74 75 73 72 73 74 76 75 75
68 69 67 64 61 59 58 57 58 62 64 69 69 68 67 67 69 71 71 72 72 69 69 67 66 65 68 68 68 67 66 65 63 63 63 62 61 62 63 63 66 69 69 67 67 68 69 71 71 74 74 70 73 75 73 75 73 73 72 73 73 73 72
69 70 71 70 67 63 62 64 64 64 67 69 69 68 70 71 71 72 73 73 74 72 71 70 69 69 71 70 68 69 69 68 64 62 63 62 60 60 61 61 63 65 67 66 66 67 67 69 69 72 74 72 73 73 73 74 74 74 74 72 72 72 72
68 68 69 70 71 70 70 70 68 69 70 70 69 69 70 71 71 72 73 73 73 74 74 73 72 71 71 70 68 70 70 68 64 63 61 62 61 59 60 60 60 61 64 66 66 66 66 68 70 70 71 72 72 72 74 74 73 75 75 73 73 72 72
67 67 67 69 69 70 70 71 72 72 72 71 69 69 70 71 71 72 73 72 73 73 74 74 74 73 73 73 70 71 70 69 68 68 65 63 65 63 60 60 61 62 63 64 65 63 64 64 66 68 69 70 70 70 72 74 73 74 74 74 72 70 70
63 63 65 66 69 70 70 70 70 70 69 71 71 71 71 70 71 73 73 73 74 73 73 75 75 75 75 74 71 72 73 72 71 70 69 69 68 66 65 63 63 63 64 65 63 60 62 62 61 63 66 68 68 69 67 66 68 68 71 72 72 72 69
63 63 63 63 65 67 69 70 70 70 70 70 69 70 70 70 71 71 71 72 73 74 74 75 76 75 75 74 74 74 75 74 73 73 74 73 73 73 71 68 67 63 64 64 64 65 66 65 63 62 62 63 66 67 64 63 63 70 75 75 73 70 67
63 63 63 64 65 66 69 70 71 70 70 70 69 69 69 70 71 70 71 71 71 72 74 75 74 75 76 75 76 76 76 76 75 75 75 75 75 76 75 74 71 69 69 68 68 68 69 66 63 62 61 60 62 63 63 62 63 74 68 69 71 71 70
61 63 64 64 66 67 68 69 69 69 69 70 71 70 69 70 70 69 70 70 71 72 73 73 73 74 74 75 76 76 76 76 75 75 75 75 76 76 77 76 75 74 74 71 69 71 68 66 67 66 62 60 60 60 60 62 68 66 67 69 69 73 72
62 63 65 67 67 67 68 69 68 70 71 70 71 72 73 72 71 71 71 71 72 73 74 74 73 74 74 75 75 75 74 74 73 73 73 74 76 76 77 77 75 75 75 74 75 72 72 72 69 69 68 64 63 60 60 70 65 65 66 66 66 67 72
64 64 65 65 66 66 66 67 68 68 68 69 70 71 71 72 72 71 72 72 73 72 72 72 73 73 73 74 73 73 73 73 73 72 72 73 74 75 76 76 76 76 76 76 77 76 75 73 72 70 71 69 68 67 66 69 64 63 64 64 65 66 68
64 64 64 64 64 65 66 66 66 67 67 67 68 69 69 69 69 70 70 70 70 70 71 71 71 71 72 72 73 73 73 73 73 73 73 73 73 73 73 73 75 75 76 76 76 76 77 76 75 75 73 72 70 70 68 64 60 61 62 62 62 64 69
63 63 63 64 64 65 65 66 66 66 66 67 66 66 66 67 68 67 67 69 69 69 69 69 69 70 71 71 71 72 72 73 72 73 73 73 73 74 73 73 74 73 75 76 77 76 75 75 74 74 73 74 73 70 69 63 58 58 58 58 60 64 71
63 62 63 64 64 65 65 65 64 65 65 65 65 65 65 66 67 67 67 67 67 67 68 69 69 69 69 70 71 71 71 71 71 72 73 72 72 73 73 73 73 74 75 74 75 74 73 73 73 73 72 72 72 71 68 66 59 56 56 56 57 65 72
62 62 63 63 64 63 63 63 63 63 63 64 64 64 65 66 66 66 66 66 66 66 66 67 67 68 68 69 69 69 70 70 71 71 71 72 71 72 72 73 73 73 74 73 72 72 72 72 73 71 70 70 71 72 68 64 60 55 54 55 55 62 72
61 61 62 62 61 61 61 62 62 63 63 63 62 63 64 64 64 64 64 64 64 65 65 65 66 67 68 68 69 67 68 68 69 71 71 70 71 71 71 72 71 71 71 71 71 71 72 72 71 71 71 70 70 69 68 65 63 55 54 54 54 62 70
60 59 58 58 58 59 61 63 62 61 61 61 62 62 63 62 61 62 62 63 64 64 64 65 65 66 68 68 70 71 69 70 70 70 69 70 70 70 71 71 69 69 69 68 68 69 71 71 70 68 69 71 70 69 69 68 67 61 54 53 54 56 67
57 56 57 56 57 59 56 56 56 58 59 61 60 56 55 56 58 60 61 60 61 62 64 66 66 65 66 68 68 68 67 67 68 68 68 69 68 69 69 68 67 67 67 66 66 65 66 66 67 66 67 69 69 69 69 67 67 64 54 53 53 54 59
55 55 56 57 58 56 54 56 57 56 55 58 56 57 58 60 60 60 60 59 59 59 60 62 65 67 66 66 65 66 65 63 64 64 64 66 67 67 66 66 66 65 63 63 63 64 65 64 64 63 63 65 66 66 65 65 66 67 57 54 53 53 55
59 58 60 60 61 58 57 55 52 52 54 54 56 58 58 59 60 60 60 59 59 59 59 58 59 62 64 65 65 65 66 65 63 62 61 62 63 65 64 64 65 66 66 65 64 64 64 63 63 62 62 63 64 65 66 68 66 65 64 56 53 53 55
57 55 55 54 53 52 53 55 55 53 51 51 53 55 58 60 60 59 59 60 60 60 60 60 62 62 62 63 62 62 62 62 63 62 63 63 63 63 63 63 63 63 63 63 62 60 62 62 63 61 60 61 62 64 65 65 63 62 63 62 56 55 53
55 55 54 53 51 53 52 52 53 54 55 55 56 56 57 58 59 59 58 59 59 60 59 59 59 59 59 59 59 60 60 60 62 63 63 63 63 63 62 63 62 61 62 63 61 60 61 61 62 62 61 60 61 60 61 63 62 60 63 62 61 56 56
56 55 55 54 54 54 53 53 54 54 54 54 54 56 57 56 57 58 58 58 58 58 58 58 58 58 58 57 58 58 56 57 57 58 59 59 59 60 60 60 59 61 61 61 61 61 61 61 59 58 60 59 60 61 61 61 62 62 64 64 63 61 58
56 55 55 54 55 54 52 53 51 51 52 53 53 53 52 54 54 55 56 57 54 55 57 58 58 57 56 56 55 57 58 55 53 53 55 55 55 54 56 56 57 58 59 58 58 59 58 57 57 54 55 57 59 59 60 61 61 60 60 61 60 60 66
60 59 58 56 55 55 53 54 54 54 54 55 56 55 55 55 55 57 56 55 56 56 57 57 57 55 55 53 55 54 55 55 58 58 52 51 52 52 53 54 55 56 57 58 58 58 56 55 56 55 55 55 57 58 58 58 58 59 59 57 57 56 57
59 59 62 57 56 56 55 56 55 54 53 53 53 54 54 54 53 54 55 56 56 57 58 57 56 56 53 53 55 55 57 52 50 52 55 54 59 58 57 56 55 57 57 57 59 57 55 56 56 56 55 55 57 57 56 57 57 58 50 57 48 53 57
59 58 57 57 57 56 56 56 55 54 54 54 55 56 57 56 56 56 54 57 58 58 58 58 57 57 56 58 56 55 53 54 52 56 56 52 54 57 58 54 49 54 58 55 55 48 45 51 56 56 58 58 56 58 57 56 56 46 42 41 41 41 42
59 60 59 58 57 56 56 56 56 55 55 54 55 55 55 56 56 58 57 58 58 59 58 58 57 56 54 56 57 57 58 57 57 57 59 58 56 56 55 57 58 44 44 51 51 46 40 40 41 44 49 60 58 55 49 49 45 42 41 41 40 40 40
61 61 61 61 59 57 56 56 56 56 56 56 55 56 55 55 56 57 56 58 59 58 58 58 57 56 55 54 52 54 57 56 56 56 56 57 57 56 55 54 58 60 47 43 47 46 42 41 41 42 43 44 51 61 57 48 43 41 41 41 41 41 40